Wetbulb
67.75 67.96 68.53 68.63 69.62 70.43 70.04 69.61 69.74 70.22 70.11 70.12 70.26 70.06 70.12 70.31 70.95 71.53 72.00 72.32 71.06 71.90 72.31 72.31 72.30 72.30 72.54 72.68 72.58 72.05 71.37 70.35 68.98 71.12 71.33 72.99 72.87 71.77 73.78 73.19 70.98 69.65 69.02
68.34 68.41 68.51 68.74 69.06 69.64 70.28 70.75 70.90 70.46 70.78 70.83 70.83 70.77 70.39 70.49 71.20 71.29 71.47 72.26 70.99 70.99 71.48 71.33 71.47 71.94 72.00 72.28 72.14 72.37 72.31 72.15 71.03 69.80 70.98 71.40 72.32 70.64 71.89 71.04 69.36 68.64 68.55
69.47 68.90 68.88 69.35 69.55 69.46 69.91 70.74 71.28 71.42 71.35 71.34 71.07 70.58 70.83 70.98 71.13 71.61 71.84 71.92 71.53 71.61 71.78 71.36 71.51 71.73 71.36 71.42 71.87 71.75 72.04 72.20 71.33 70.72 70.66 71.41 71.77 71.61 70.35 68.47 66.78 66.81 67.11
70.10 69.69 69.59 69.94 69.80 70.70 71.05 71.11 71.82 72.36 71.23 70.42 70.36 70.60 71.16 71.23 71.36 71.09 71.13 71.04 71.41 71.81 71.95 71.96 71.87 71.66 71.48 71.67 71.51 71.79 72.29 71.78 71.42 70.95 70.86 71.14 71.31 72.00 70.66 66.19 64.83 65.45 64.87
70.29 70.35 70.63 71.22 71.54 72.37 71.64 72.08 71.98 71.45 70.56 69.85 68.65 68.66 69.05 69.95 70.70 71.10 71.13 70.87 70.94 71.09 71.77 72.10 72.35 72.10 70.38 70.36 71.77 71.93 72.06 71.44 71.16 70.79 70.05 69.82 70.29 69.29 68.63 67.84 66.03 64.46 63.73
69.77 70.21 71.08 71.13 71.85 71.40 70.93 71.24 71.47 70.72 69.51 69.45 69.29 68.54 67.32 68.24 66.45 66.09 69.19 70.11 70.63 71.29 71.18 72.16 72.44 70.96 70.19 67.46 67.01 68.18 70.72 71.38 70.87 70.54 70.74 69.61 70.11 70.61 70.28 68.02 64.78 62.84 61.18
70.48 71.14 70.68 69.26 66.73 66.17 66.04 66.24 65.81 65.50 66.58 68.22 68.09 68.16 68.13 69.11 64.68 64.19 65.90 68.31 68.31 69.18 70.63 71.97 71.92 72.60 70.61 72.52 68.16 66.45 66.68 66.38 68.67 72.12 70.76 70.57 70.88 70.92 70.79 68.11 65.70 66.16 66.00
67.21 65.85 65.27 64.62 62.39 60.47 59.69 59.23 59.02 58.89 58.75 58.79 59.75 59.92 59.90 61.16 60.14 60.13 62.53 65.45 66.69 68.88 70.33 70.59 70.95 71.25 72.09 72.02 72.38 72.33 71.36 71.11 69.99 70.52 72.49 72.93 72.27 71.97 70.96 71.00 68.45 66.45 64.36
63.08 61.82 61.12 60.10 58.55 56.62 55.46 54.67 53.44 53.26 53.20 53.09 53.81 53.48 53.66 54.24 55.15 55.70 57.21 60.11 61.15 63.59 67.81 70.17 70.78 70.91 68.15 64.81 71.89 71.23 71.30 70.56 64.57 63.48 64.66 63.94 63.52 63.28 67.14 67.32 63.74 63.47 60.13
58.94 57.40 57.26 56.48 54.65 53.04 51.87 51.12 50.87 51.19 51.22 51.24 51.72 52.40 52.36 53.02 53.48 53.33 54.14 55.66 56.54 59.01 62.80 67.45 65.14 68.69 63.97 62.36 69.60 71.03 69.91 69.87 67.59 65.65 65.96 64.68 64.36 64.15 62.97 68.29 65.63 64.72 60.49
55.80 53.82 52.67 52.59 51.69 50.74 50.50 50.60 51.20 51.24 51.76 52.53 52.83 52.91 53.30 53.10 53.60 53.00 53.86 55.14 54.46 55.84 59.17 61.71 67.67 61.93 59.34 57.89 60.06 71.08 69.71 70.14 65.75 66.31 65.50 63.36 64.26 63.57 62.62 62.72 65.14 64.08 58.69
54.12 52.59 51.36 51.78 51.53 51.21 51.36 51.88 52.42 51.75 53.04 53.54 53.06 53.24 54.06 55.04 54.20 53.38 52.83 52.57 53.52 54.84 56.06 59.09 62.64 58.05 57.53 56.80 57.87 60.06 58.61 61.95 63.94 62.84 60.66 60.52 58.47 56.12 56.12 56.62 57.64 57.90 58.95
51.69 51.00 50.98 51.78 51.93 51.67 51.47 51.77 51.38 51.77 52.62 51.83 52.10 52.15 52.38 53.97 54.06 53.84 53.15 52.80 53.04 52.95 55.38 57.15 56.38 54.99 53.34 57.16 56.94 58.05 58.41 63.94 61.71 60.10 59.01 57.38 55.90 56.02 56.34 55.62 55.92 56.26 56.38
51.32 50.80 51.38 51.68 51.21 51.94 52.84 53.40 51.94 51.68 51.66 50.74 50.35 49.81 49.98 51.19 52.91 53.94 51.31 51.02 52.19 53.41 54.88 57.18 58.46 58.52 58.21 61.67 58.71 59.07 63.11 62.77 61.04 58.93 55.84 55.86 56.66 55.70 55.34 55.78 54.99 55.14 54.39
51.41 51.38 51.63 51.79 51.71 50.89 51.20 51.64 52.16 52.23 51.13 50.99 51.26 49.36 48.64 48.44 50.97 47.32 45.94 46.60 49.69 52.08 51.21 59.54 59.56 60.60 60.67 60.48 60.64 62.05 62.63 60.94 58.35 56.90 55.96 55.60 54.57 55.10 54.37 55.38 54.88 54.45 53.05
51.13 51.04 51.27 51.16 51.21 51.03 51.62 51.93 48.99 48.06 46.62 45.14 44.54 46.14 51.06 48.44 45.67 43.99 43.89 44.06 43.86 44.57 55.87 59.94 60.12 59.90 58.77 58.25 58.03 57.36 57.87 57.34 56.84 56.60 55.94 55.24 55.14 54.14 53.81 54.78 55.10 53.36 52.29
51.65 51.57 51.36 50.92 50.96 50.59 50.52 50.85 51.69 51.73 47.74 46.89 45.49 44.82 45.24 44.94 44.60 43.73 44.80 44.93 47.68 52.84 56.20 56.26 56.48 57.14 56.62 56.94 56.56 56.14 55.09 56.02 56.38 55.48 54.89 54.86 55.66 55.20 54.38 53.96 54.40 53.48 51.17
52.66 51.09 51.92 51.55 51.46 51.18 51.04 50.71 51.04 51.12 51.35 51.54 49.23 46.62 45.53 44.59 44.31 44.43 45.91 50.58 53.95 54.28 54.87 54.71 54.77 55.33 55.88 55.82 55.82 55.25 55.25 55.23 55.14 54.92 54.59 54.74 54.65 54.28 53.21 53.87 53.70 52.90 52.67
52.60 52.37 52.23 52.34 51.81 51.61 51.23 50.84 50.83 50.64 50.77 51.15 52.07 50.04 49.34 45.28 45.28 46.67 48.29 54.35 53.47 53.53 54.17 54.17 54.39 54.51 54.73 54.87 54.98 54.62 54.38 54.18 54.12 53.70 53.63 53.71 53.93 52.41 51.80 52.78 53.37 50.01 51.42
53.70 53.30 52.82 52.35 52.04 51.69 51.19 51.04 50.50 50.70 51.34 52.00 52.15 51.82 52.08 52.40 52.42 52.66 53.74 54.51 54.16 54.02 54.48 53.92 54.22 54.30 53.81 53.23 53.08 52.91 52.80 52.40 52.74 53.07 53.58 53.69 53.84 53.81 53.25 53.31 53.70 53.30 53.07
54.52 54.45 54.06 53.17 52.80 52.67 51.78 51.36 51.80 51.56 51.82 51.78 51.90 50.98 44.52 52.68 52.32 52.32 52.26 52.92 54.55 54.41 53.62 53.67 53.88 53.92 53.34 53.86 53.37 53.18 53.25 53.52 54.30 54.56 54.11 53.95 53.30 52.96 53.96 54.49 54.03 53.75 52.09
55.98 55.29 54.79 54.25 54.22 53.81 53.44 52.94 52.84 53.17 52.84 52.03 51.28 50.55 44.89 53.88 53.11 53.17 53.75 54.08 54.50 54.94 55.59 55.49 54.46 54.00 53.52 53.15 53.69 53.78 53.19 53.18 54.19 54.73 54.17 54.08 53.80 53.39 53.50 53.19 53.10 52.45 52.04
57.25 56.21 55.92 55.73 55.52 54.03 54.38 54.53 54.01 54.16 54.06 53.52 52.26 51.13 51.06 53.75 54.27 54.11 53.97 54.94 55.43 55.76 55.46 55.52 55.08 54.38 54.04 54.27 54.81 54.74 53.23 52.82 53.90 54.23 53.85 53.47 53.08 53.30 53.38 52.81 51.94 50.90 51.11
58.82 57.70 56.91 56.41 55.99 55.78 55.66 55.44 55.37 51.00 54.86 54.80 54.85 52.95 51.49 51.79 52.53 53.90 55.02 55.58 55.54 55.66 55.03 54.40 53.86 53.25 53.20 53.32 54.15 54.76 54.20 53.88 54.54 55.13 55.49 54.21 53.02 50.63 51.94 51.14 50.97 50.66 49.97
59.56 59.13 58.67 57.66 56.48 56.17 55.99 55.79 55.84 55.90 56.02 55.96 55.43 54.72 53.50 51.82 51.78 52.61 53.55 54.48 54.65 54.81 54.31 53.51 53.24 53.61 52.52 52.38 53.12 53.14 46.22 42.58 52.83 47.69 54.74 54.00 53.18 52.08 50.97 50.45 49.91 49.16 48.89
60.08 59.49 58.60 57.76 57.21 57.27 57.13 56.90 56.78 57.01 56.75 56.89 56.43 55.53 54.48 52.88 52.27 52.54 53.20 53.86 54.08 54.42 54.85 54.38 53.40 53.12 51.99 52.22 51.78 42.80 34.94 38.90 48.01 41.84 53.36 53.77 52.66 51.28 50.60 50.17 49.97 49.50 49.04
MSLP
1012.06 1012.67 1013.22 1013.62 1014.12 1014.48 1014.85 1015.11 1015.51 1015.77 1015.88 1016.06 1016.20 1016.38 1016.49 1016.55 1016.71 1016.98 1017.12 1017.21 1017.52 1017.53 1017.63 1017.64 1017.65 1017.77 1017.88 1017.96 1018.01 1017.95 1017.99 1018.25 1018.21 1017.74 1017.59 1017.10 1017.20 1017.33 1017.31 1017.54 1017.81 1018.05 1018.43
1011.23 1011.98 1012.46 1012.99 1013.52 1013.95 1014.20 1014.47 1014.77 1015.02 1015.28 1015.49 1015.75 1015.96 1015.97 1016.08 1016.20 1016.40 1016.55 1016.62 1016.78 1016.73 1016.75 1017.14 1017.16 1017.23 1017.38 1017.54 1017.71 1017.58 1017.49 1017.56 1017.73 1017.52 1017.36 1017.05 1017.05 1017.20 1017.41 1017.77 1018.03 1018.36 1018.60
1010.38 1011.25 1012.19 1012.54 1012.98 1013.26 1013.47 1013.71 1014.07 1014.36 1014.75 1014.97 1015.09 1015.20 1015.26 1015.37 1015.51 1015.62 1015.77 1015.89 1016.00 1016.01 1016.01 1016.13 1016.23 1016.59 1016.73 1016.89 1017.13 1017.21 1017.15 1017.07 1017.25 1017.27 1017.03 1016.91 1016.89 1017.11 1017.53 1017.99 1018.42 1018.72 1019.06
1010.04 1010.65 1011.25 1011.84 1012.30 1012.48 1012.82 1013.11 1013.52 1013.85 1014.12 1014.19 1014.04 1014.25 1014.47 1014.51 1014.70 1014.86 1014.91 1015.04 1015.20 1015.20 1015.21 1015.41 1015.51 1015.71 1015.82 1015.93 1016.26 1016.41 1016.54 1016.58 1016.83 1016.96 1016.92 1016.83 1016.81 1016.98 1017.24 1017.81 1018.56 1018.93 1019.23
1009.59 1010.22 1010.62 1011.11 1011.64 1012.36 1012.77 1012.87 1013.04 1013.29 1013.36 1013.48 1013.73 1014.04 1014.29 1014.59 1014.48 1014.46 1014.53 1014.50 1014.60 1014.57 1014.52 1014.53 1014.61 1014.77 1014.87 1015.03 1015.39 1015.49 1015.80 1015.93 1016.19 1016.34 1016.47 1016.53 1016.54 1016.77 1016.84 1017.28 1018.00 1018.63 1019.25
1009.05 1009.71 1010.38 1011.25 1011.70 1012.13 1012.81 1012.82 1012.85 1012.95 1013.14 1013.48 1013.59 1013.87 1013.98 1014.05 1013.99 1013.99 1014.11 1014.17 1014.21 1014.13 1013.78 1013.50 1013.63 1013.82 1013.99 1014.10 1014.29 1014.51 1014.77 1015.01 1015.18 1015.41 1015.50 1015.66 1015.63 1015.83 1016.21 1016.69 1017.44 1018.23 1018.90
1008.84 1009.77 1010.63 1010.81 1011.22 1012.31 1012.93 1012.96 1013.15 1013.35 1013.37 1013.55 1013.58 1013.58 1013.55 1013.56 1013.57 1013.71 1013.73 1013.71 1013.55 1013.42 1013.33 1012.77 1012.60 1012.77 1012.98 1013.11 1013.24 1013.53 1013.74 1013.84 1013.94 1014.15 1014.31 1014.37 1014.52 1014.69 1015.19 1015.86 1016.30 1016.73 1017.05
1009.34 1010.18 1010.85 1011.17 1011.93 1012.79 1013.57 1013.73 1013.85 1013.99 1014.04 1014.30 1014.15 1013.88 1013.65 1013.24 1013.35 1013.42 1013.42 1013.21 1012.91 1012.55 1012.20 1011.90 1011.68 1011.57 1011.91 1012.29 1012.47 1012.63 1012.76 1012.75 1012.96 1013.20 1013.23 1013.23 1013.33 1013.69 1014.11 1014.35 1015.10 1016.27 1017.07
1010.22 1010.80 1011.48 1011.82 1012.62 1012.65 1013.84 1014.34 1014.59 1014.53 1014.89 1015.02 1014.89 1014.72 1014.49 1013.82 1013.60 1013.39 1013.20 1012.59 1011.94 1011.39 1010.98 1010.76 1010.73 1010.38 1010.69 1011.23 1011.60 1011.98 1011.92 1011.81 1011.97 1012.28 1012.33 1012.45 1012.77 1013.20 1013.56 1014.44 1015.21 1015.77 1016.77
1010.57 1011.10 1011.63 1012.06 1012.60 1013.87 1014.30 1014.60 1015.16 1015.44 1015.43 1015.08 1014.96 1014.97 1014.81 1014.26 1013.76 1013.35 1013.02 1012.50 1011.64 1010.97 1010.44 1009.94 1009.88 1009.90 1010.22 1010.59 1011.12 1011.05 1011.12 1011.07 1011.68 1012.07 1012.50 1012.85 1012.84 1013.22 1013.69 1013.60 1014.29 1014.73 1015.91
1011.23 1011.49 1012.32 1012.58 1013.90 1014.83 1015.15 1015.41 1015.41 1015.36 1015.14 1014.95 1014.64 1014.48 1014.20 1013.97 1013.48 1013.18 1012.84 1012.22 1011.55 1010.98 1010.28 1009.51 1009.06 1009.10 1009.37 1009.81 1009.98 1010.12 1010.11 1010.40 1011.26 1011.81 1012.44 1013.00 1013.30 1013.50 1013.76 1013.69 1013.58 1014.11 1014.97
1011.79 1012.23 1012.89 1014.16 1014.89 1015.32 1015.19 1015.33 1015.23 1015.19 1015.26 1015.17 1014.89 1014.37 1013.92 1013.39 1012.80 1012.29 1011.95 1011.58 1011.13 1010.56 1009.71 1009.31 1009.04 1008.88 1008.73 1008.87 1009.40 1009.37 1009.87 1010.36 1011.32 1011.75 1012.46 1012.95 1013.07 1012.93 1014.49 1014.76 1015.16 1014.19 1014.64
1012.23 1012.63 1013.41 1014.14 1014.72 1014.79 1014.66 1015.15 1015.45 1015.57 1015.60 1015.63 1015.40 1014.88 1014.07 1013.21 1012.57 1011.86 1011.06 1010.47 1010.08 1009.73 1009.12 1008.76 1008.73 1008.75 1008.69 1008.44 1008.68 1008.94 1009.61 1009.97 1010.30 1011.61 1011.94 1013.42 1013.51 1014.38 1015.11 1015.40 1015.52 1016.37 1014.81
1012.39 1013.35 1013.78 1014.07 1014.48 1014.87 1015.09 1015.42 1015.50 1015.76 1015.62 1015.97 1015.64 1015.15 1014.18 1013.23 1012.25 1011.18 1010.24 1009.47 1008.95 1008.64 1008.13 1007.80 1007.69 1007.95 1008.35 1008.15 1008.41 1008.87 1009.20 1009.60 1010.45 1011.53 1012.72 1013.68 1014.29 1014.84 1015.29 1015.92 1016.28 1016.67 1017.16
1013.25 1013.62 1013.89 1014.11 1014.77 1015.17 1015.50 1015.40 1015.31 1015.54 1015.72 1016.03 1015.58 1015.33 1014.71 1013.68 1012.51 1011.49 1010.27 1009.00 1008.12 1007.77 1007.56 1006.69 1006.77 1007.17 1007.60 1007.68 1008.31 1008.74 1009.34 1009.93 1010.92 1011.94 1012.78 1013.60 1014.50 1015.15 1015.83 1016.27 1016.41 1016.84 1017.56
1013.09 1013.82 1014.17 1014.44 1014.79 1015.11 1015.08 1015.34 1015.29 1015.47 1015.68 1015.41 1015.40 1015.11 1014.47 1013.87 1012.50 1011.06 1009.91 1008.71 1007.71 1007.40 1006.97 1006.48 1006.52 1006.86 1007.38 1007.86 1008.36 1009.17 1009.84 1010.55 1011.46 1012.11 1013.01 1013.79 1014.42 1015.33 1016.09 1016.70 1016.95 1017.21 1017.87
1012.74 1013.56 1013.94 1014.29 1014.67 1015.00 1015.41 1015.62 1015.70 1015.48 1015.43 1015.12 1014.96 1014.49 1014.33 1013.40 1012.06 1011.05 1010.31 1009.47 1008.20 1007.36 1007.37 1007.30 1007.48 1007.66 1008.02 1008.33 1009.11 1009.73 1010.41 1011.31 1011.97 1012.75 1013.27 1014.23 1014.94 1015.75 1016.31 1016.79 1017.12 1017.49 1017.87
1012.52 1013.17 1013.50 1014.09 1014.71 1015.07 1015.41 1015.81 1015.99 1015.67 1015.55 1015.44 1014.63 1014.66 1013.99 1013.17 1012.21 1011.70 1011.12 1010.13 1009.47 1008.94 1008.63 1008.64 1008.79 1009.03 1009.15 1009.39 1009.98 1010.38 1011.24 1012.13 1012.88 1013.55 1014.28 1014.91 1015.46 1015.98 1016.70 1017.18 1017.18 1017.48 1017.72
1012.40 1013.20 1013.46 1014.25 1014.66 1014.92 1015.42 1015.74 1016.03 1015.89 1015.80 1015.54 1015.38 1014.84 1014.02 1013.39 1012.95 1012.60 1012.17 1011.63 1011.34 1010.83 1010.42 1010.31 1010.33 1010.48 1010.70 1010.82 1011.08 1011.53 1012.31 1012.95 1013.76 1014.47 1015.09 1015.44 1015.96 1016.21 1016.54 1016.93 1017.14 1017.37 1017.76
1012.25 1012.92 1013.48 1013.99 1014.52 1015.02 1015.63 1015.85 1016.00 1015.75 1015.64 1015.87 1015.80 1015.26 1014.45 1013.94 1013.92 1013.89 1013.54 1012.99 1012.66 1012.48 1012.35 1012.05 1012.10 1011.91 1011.86 1012.43 1012.74 1013.02 1013.89 1014.34 1014.76 1015.19 1015.54 1015.76 1016.20 1016.45 1016.63 1016.74 1016.98 1017.33 1017.85
1011.91 1012.64 1013.29 1014.10 1014.47 1015.10 1015.36 1015.33 1015.49 1015.61 1015.89 1015.86 1015.62 1015.13 1014.98 1014.89 1014.94 1014.93 1014.92 1014.48 1013.77 1013.47 1013.47 1013.46 1013.52 1013.49 1013.34 1013.61 1014.08 1014.59 1014.88 1015.22 1015.53 1015.86 1016.13 1016.30 1016.45 1016.41 1016.52 1016.70 1017.04 1017.42 1018.06
1011.44 1012.20 1012.99 1013.64 1014.14 1014.54 1014.77 1015.17 1015.34 1015.60 1015.59 1015.49 1015.19 1014.89 1015.00 1015.08 1015.17 1015.38 1015.36 1015.20 1014.87 1014.55 1014.33 1014.26 1014.21 1014.24 1014.42 1014.75 1015.09 1015.18 1015.45 1015.62 1015.69 1015.93 1016.28 1016.37 1016.36 1016.55 1016.73 1017.16 1017.64 1018.01 1018.47
1011.15 1011.78 1012.54 1013.12 1013.53 1014.01 1014.56 1014.89 1014.99 1014.91 1014.87 1014.89 1014.80 1014.78 1014.94 1014.91 1015.15 1015.33 1015.30 1015.15 1015.11 1015.03 1014.94 1014.70 1014.58 1014.64 1014.83 1014.95 1015.03 1015.05 1015.15 1015.34 1015.48 1015.59 1015.98 1016.37 1016.62 1016.72 1016.97 1017.41 1017.82 1018.25 1018.85
1010.53 1011.21 1011.83 1012.54 1013.15 1013.65 1013.88 1013.99 1014.08 1014.08 1014.05 1014.17 1014.40 1014.47 1014.46 1014.60 1014.90 1014.98 1014.96 1014.90 1014.80 1014.81 1014.87 1014.91 1014.88 1014.83 1014.82 1014.82 1014.93 1014.99 1015.00 1015.13 1015.32 1015.53 1015.65 1016.07 1016.53 1016.85 1017.20 1017.70 1018.09 1018.55 1019.08
1010.12 1010.71 1011.27 1011.87 1012.37 1012.75 1012.99 1013.12 1013.15 1013.20 1013.22 1013.38 1013.60 1013.76 1013.93 1014.15 1014.37 1014.52 1014.71 1014.72 1014.73 1014.77 1014.82 1014.88 1014.88 1014.83 1014.90 1015.01 1015.07 1015.16 1015.42 1015.51 1015.44 1015.57 1015.75 1016.06 1016.37 1016.81 1017.22 1017.71 1018.27 1018.84 1019.31
1009.51 1010.09 1010.60 1011.15 1011.55 1011.82 1012.05 1012.09 1012.11 1012.26 1012.38 1012.41 1012.53 1012.82 1013.22 1013.52 1013.62 1013.96 1014.24 1014.35 1014.40 1014.49 1014.61 1014.67 1014.68 1014.68 1014.71 1014.85 1015.07 1015.40 1015.64 1015.59 1015.50 1015.68 1015.78 1016.07 1016.48 1016.97 1017.45 1017.90 1018.38 1018.78 1019.28
Wind_Speed
11 10 9 8 8 8 7 7 7 6 6 6 6 5 6 5 6 5 7 7 8 7 6 6 7 5 4 4 3 3 4 4 4 2 3 1 3 3 3 5 5 6 6
12 12 12 8 8 10 9 9 8 8 6 6 5 5 5 6 6 7 8 7 9 9 9 7 9 6 7 6 5 6 5 5 4 6 2 3 4 3 4 5 5 4 6
13 13 11 10 9 11 11 9 8 7 5 5 6 7 7 7 7 8 8 9 8 10 9 9 10 8 8 6 6 6 5 4 5 4 4 2 2 3 3 4 4 6 4
12 12 12 13 13 12 9 7 7 8 9 9 10 7 6 6 6 6 7 8 9 9 10 9 11 10 11 9 8 8 7 5 5 5 5 4 3 2 4 4 3 2 5
11 10 11 7 8 5 6 8 7 8 10 10 7 5 4 6 5 6 6 7 8 9 9 10 11 12 14 12 7 8 8 7 5 6 5 3 3 3 6 4 3 5 4
11 10 7 7 5 4 5 6 6 6 5 4 6 3 5 6 8 9 9 7 7 9 10 9 9 12 14 16 16 15 11 9 9 6 6 7 8 6 5 6 6 4 4
9 8 10 8 9 6 4 5 5 3 4 4 6 6 6 7 9 10 11 7 8 11 12 10 9 9 13 12 14 16 15 15 15 10 10 10 8 9 7 8 8 8 5
8 9 9 10 11 8 6 5 4 4 5 5 6 8 9 8 9 8 9 8 7 10 12 13 12 12 12 12 10 11 12 12 14 11 11 10 10 7 11 11 10 6 6
10 10 9 11 9 9 6 5 4 4 4 4 5 8 9 12 16 18 15 9 9 12 11 11 12 12 12 15 10 11 12 11 7 10 9 6 8 9 10 7 7 9 3
10 11 9 9 10 8 6 6 3 3 3 4 5 5 8 10 13 16 14 9 12 10 11 14 15 16 13 14 12 12 12 12 9 8 6 3 2 4 7 6 8 10 5
11 12 10 11 9 7 6 5 5 5 5 6 8 7 7 7 10 15 15 10 11 11 10 10 10 15 17 15 17 12 12 7 7 5 3 3 3 4 3 3 5 8 5
12 12 12 10 8 7 8 6 6 6 6 7 8 8 7 9 11 14 17 18 18 12 12 10 9 11 15 15 11 14 10 8 5 5 5 5 7 8 7 6 6 9 7
11 12 11 10 8 7 9 8 6 6 7 6 7 9 10 9 9 17 19 20 21 14 11 13 13 14 11 11 13 9 11 6 9 8 7 6 7 9 11 11 12 11 13
11 10 8 10 8 8 6 6 6 4 5 4 5 7 9 10 10 10 10 9 13 13 15 13 14 12 11 4 6 7 7 8 10 10 10 10 9 9 10 8 10 8 8
10 9 8 8 8 7 4 4 5 3 1 2 4 5 8 10 10 19 15 9 6 7 7 6 6 6 7 5 5 6 7 9 10 11 12 11 11 9 9 8 8 8 8
11 7 6 7 5 4 4 3 1 2 3 4 8 4 6 12 17 18 19 16 7 13 2 2 4 6 7 7 8 8 8 12 9 11 10 11 11 12 10 7 7 8 8
12 10 7 6 5 5 4 4 3 3 4 5 9 10 11 13 18 16 17 15 16 11 8 8 5 5 6 7 8 9 10 8 11 10 11 10 10 9 10 8 7 5 4
8 10 7 6 5 5 4 3 1 2 4 5 7 8 12 17 18 17 16 11 11 12 10 10 10 8 7 8 9 10 11 10 10 10 9 8 7 7 6 6 5 6 8
9 6 6 6 5 5 4 3 1 1 3 4 4 6 10 15 15 15 15 10 9 10 10 12 11 10 9 9 9 11 12 11 10 10 8 7 5 4 4 5 7 8 8
7 12 8 6 5 5 4 4 2 0 2 3 3 4 5 8 9 10 9 8 9 9 9 10 10 10 12 11 10 12 10 10 9 7 6 6 5 5 7 7 6 6 5
7 8 10 6 6 6 5 4 2 1 2 3 3 2 6 4 6 6 7 8 7 7 8 8 8 8 9 9 8 7 8 7 5 4 3 4 4 5 4 5 6 7 8
8 8 8 8 7 6 6 5 4 4 3 2 2 2 3 2 2 3 3 4 5 4 4 5 5 5 5 5 4 5 4 4 4 5 5 4 4 5 6 6 6 7 8
8 9 8 6 7 6 6 6 6 5 4 3 2 1 1 1 2 3 2 0 1 1 1 1 3 3 3 3 4 4 5 5 5 5 6 5 5 5 5 6 7 8 7
9 9 9 7 7 7 7 7 6 6 5 4 4 4 4 3 4 4 4 3 2 1 1 2 2 4 3 3 3 2 3 4 4 5 7 6 5 6 6 6 7 8 7
9 8 8 7 8 8 7 8 7 7 6 6 6 5 5 5 5 5 5 4 4 3 4 3 3 3 3 4 4 5 5 6 5 6 5 5 8 9 7 7 8 7 8
8 8 7 7 8 8 8 8 8 7 8 7 7 7 7 7 7 6 5 5 5 5 5 4 4 6 7 5 6 7 5 5 5 5 5 6 8 7 8 10 12 8 9
Wind_Direction
179 183 194 196 200 196 205 214 205 200 203 217 224 209 219 224 232 231 235 239 227 236 237 231 244 231 238 240 233 224 209 188 226 275 255 274 192 183 132 129 130 135 131
181 183 189 183 194 201 207 211 201 211 202 212 220 220 228 233 241 235 242 238 226 230 229 230 248 246 239 228 222 234 226 208 205 239 251 242 208 200 162 141 141 123 125
181 179 187 195 204 216 210 207 199 207 202 201 204 217 218 225 230 229 230 239 232 235 232 219 234 230 243 237 223 238 238 229 223 232 242 244 188 163 131 101 111 113 105
176 185 184 191 198 208 205 183 180 185 188 200 210 206 212 216 226 234 225 228 231 233 231 228 236 223 230 228 229 227 230 237 217 232 246 246 225 165 157 147 162 138 141
181 182 200 184 192 164 172 193 199 195 206 215 211 207 209 248 246 234 231 231 241 247 241 231 232 231 228 225 219 231 220 225 218 225 234 217 204 187 202 169 149 152 146
172 186 147 116 136 177 196 197 203 214 238 284 283 235 211 232 232 239 251 262 262 258 252 245 238 231 227 225 221 226 207 220 223 218 227 223 221 208 178 179 147 171 189
158 154 139 147 111 82 91 95 77 66 33 339 326 319 288 260 229 240 239 241 253 254 255 250 251 247 234 235 223 229 230 220 221 215 224 219 227 210 183 176 181 188 186
109 108 114 116 112 105 79 60 45 23 22 354 338 345 327 307 323 318 303 276 250 254 249 247 240 248 239 218 224 233 233 226 224 221 226 232 224 192 196 195 186 152 95
124 111 112 120 117 93 99 91 46 35 20 3 339 335 327 311 320 317 316 298 279 267 259 253 249 249 235 213 218 235 242 240 211 220 235 241 225 210 171 139 167 166 140
125 112 107 100 94 102 106 87 66 50 20 6 349 310 301 298 300 293 297 293 282 273 264 253 230 234 232 210 217 229 240 243 208 208 231 239 171 154 166 212 176 176 136
121 99 98 87 99 111 105 95 82 52 29 1 346 329 303 300 307 296 288 274 268 270 259 254 248 221 225 224 218 227 231 241 215 199 152 104 92 114 99 135 181 175 150
110 115 104 120 127 129 114 99 68 47 35 7 347 336 328 317 308 300 283 270 267 264 258 258 260 273 219 225 216 228 232 158 138 134 122 131 110 92 69 51 33 104 80
113 109 112 113 113 99 85 74 62 45 25 1 352 338 325 316 308 299 287 272 261 251 247 249 246 262 275 230 213 203 170 162 132 150 133 118 107 110 109 98 98 60 74
111 115 123 115 103 91 94 96 85 58 39 6 333 322 324 317 310 313 304 287 267 257 249 245 231 219 243 200 124 152 157 147 145 136 124 121 118 112 106 111 106 94 91
129 124 113 106 109 113 108 103 91 86 113 323 328 322 319 315 312 312 309 298 261 244 317 228 194 190 190 128 113 131 125 123 127 129 130 127 120 116 110 114 105 101 102
125 130 135 128 120 113 91 74 26 261 275 252 275 277 329 291 320 325 328 337 292 251 226 196 157 147 138 130 125 117 117 121 128 129 126 128 128 127 128 123 119 120 136
137 143 134 130 124 116 107 92 96 342 300 314 322 318 327 339 350 344 346 337 24 40 52 49 40 86 99 104 113 116 113 113 120 118 120 125 127 128 135 145 146 146 120
129 133 138 130 136 138 134 143 113 48 21 337 331 325 346 1 356 357 359 5 35 41 55 57 57 51 72 96 103 106 105 107 110 112 110 110 113 119 127 152 154 159 135
140 147 136 140 152 138 148 156 144 26 24 347 340 332 360 356 3 5 12 39 39 44 55 61 60 58 63 72 85 92 97 97 104 110 118 123 125 120 136 157 152 143 132
142 147 149 152 152 154 178 187 199 238 350 341 323 342 6 20 22 11 8 34 47 45 50 64 67 75 81 68 76 91 96 106 115 127 137 133 150 170 172 152 138 135 126
149 152 162 168 178 184 188 199 206 207 255 291 295 340 4 42 27 27 13 17 46 65 65 72 77 75 74 90 97 98 110 127 131 151 181 186 174 167 133 140 137 130 135
158 162 171 185 187 194 199 207 215 221 224 260 293 4 34 54 32 13 18 26 30 40 74 95 95 94 105 126 142 146 153 156 155 160 160 156 135 131 138 139 136 139 139
168 171 176 181 190 190 203 212 217 219 219 221 248 257 192 241 246 259 274 160 86 77 18 82 112 120 133 163 180 175 162 166 164 149 138 137 144 138 140 143 142 136 143
172 179 177 180 187 196 208 217 215 221 223 221 222 224 227 210 223 228 233 227 222 209 188 158 157 150 149 144 147 147 128 126 136 161 155 146 141 140 137 137 143 145 140
177 173 172 183 192 199 204 221 219 221 227 229 230 222 225 224 227 226 220 214 210 204 205 199 193 185 175 160 148 150 135 151 149 140 153 155 157 154 150 146 143 142 139
167 175 183 185 195 199 208 216 225 226 229 231 231 229 217 219 223 216 221 221 214 210 215 209 194 180 169 161 157 144 150 149 132 136 146 156 157 156 156 149 149 146 144